Погода в Филадельфии

США     32°46′16″N   89°06′59″W
темп.,
°C
ветер,
м/с
пор.,
м/с
влажн.,
%
обл.,
%
осадки,
мм/ч
давл.,
гПа
погр.,
м
16 октября, сб
сб1601:00+19сз5119487 1.4 1015577
04:00+15ссз51091100 0.1 1018748
07:00+11ссз513850 0.1 1021645
10:00+16с610460 0.0 1022890
13:00+19с68300 0.0 10211406
16:00+19с58330 0.0 10201568
19:00+13с26520 0.0 1022127
22:00+11ссз27620 0.0 1024140
17 октября, вс
вс1701:00+9с27650 0.0 1024128
04:00+8с27670 0.0 1024147
07:00+7ссв27700 0.0 1025125
10:00+15ссв36440 0.0 1025612
13:00+20ссв34300 0.0 10241217
16:00+20ссв34310 0.0 10221320
19:00+13ссв255682 0.0 102381
22:00+11ссв2363100 0.0 102356
18 октября, пн
пн1801:00+9всв226996 0.0 102337
04:00+9всв227094 0.0 102346
07:00+8всв2275100 0.0 102429
10:00+15в2447100 0.0 1024416
13:00+20в223399 0.0 1022926
16:00+21всв2233100 0.0 10201109
19:00+14всв225768 0.0 102121
22:00+11вюв22630 0.0 102212
19 октября, вт
вт1901:00+10вюв1266100 0.0 102210
04:00+9юв11675 0.0 102210
07:00+9юв227147 0.0 102311
10:00+18юв24490 0.0 1023398
13:00+23ююв23365 0.0 10221245
16:00+24ю233956 0.0 10201481
19:00+17юв236885 0.0 102140
22:00+15юв2567100 0.0 102179
20 октября, ср
ср2001:00+15ююв2262100 0.0 102138
04:00+14юв2267100 0.0 102233
07:00+14юв2383100 0.0 102360
10:00+21юв3468100 0.0 1023397
13:00+25ююв3356100 0.0 10221167
16:00+24ююв2358100 0.0 1020998
19:00+19вюв22813 0.0 102025
22:00+18ююв24830 0.0 102187